EHI
0 0 0 0 0 1 2 3 2 1 1 2 3 2 1 1 3 4 4 3 2 2 3 3 1 0 0 0 0 0 0 0 0 0 0 0 0 0 0 0 0 0 0
0 0 0 0 0 0 2 3 2 1 1 2 2 2 1 0 2 3 3 3 2 2 2 2 1 0 0 0 0 0 0 0 0 0 0 0 0 0 0 0 0 0 0
0 0 0 0 0 1 2 3 2 1 1 2 1 1 0 0 1 2 2 2 2 2 2 2 1 0 0 0 0 0 0 0 0 0 0 0 0 0 0 0 0 0 0
0 0 0 0 0 1 2 2 1 0 0 0 0 0 0 0 0 1 1 1 2 3 2 2 2 1 0 0 0 0 1 1 1 0 0 0 0 0 0 0 0 0 0
0 0 0 0 0 1 1 1 0 0 0 0 0 0 0 0 0 0 0 0 1 2 2 3 3 2 1 0 1 2 3 4 2 1 0 0 0 0 0 0 0 0 0
0 0 0 0 0 0 0 0 0 0 0 0 0 0 0 0 0 0 0 0 0 1 1 2 3 2 1 1 1 2 3 4 3 2 0 0 0 0 0 0 0 0 0
0 0 0 0 0 0 0 0 0 0 0 0 0 0 0 0 0 0 0 0 0 0 0 1 1 1 1 0 1 1 2 2 2 1 0 0 0 0 0 0 0 0 0
0 0 0 0 0 0 0 0 0 0 0 0 0 0 0 0 0 0 0 0 0 0 0 0 0 0 0 0 0 0 1 1 1 0 0 0 0 0 0 0 0 0 0
0 0 0 0 0 0 0 0 0 0 0 0 0 0 0 0 0 0 0 0 0 0 0 0 0 0 0 0 0 0 1 2 1 0 0 0 0 0 0 0 0 0 0
0 0 0 0 0 0 0 0 0 0 0 0 0 0 0 0 0 0 0 0 0 0 0 0 0 0 0 0 0 0 1 1 1 0 0 0 0 0 0 0 0 0 0
0 0 0 0 1 1 0 0 0 0 0 0 0 0 0 0 0 0 0 0 0 0 0 0 0 0 0 0 0 0 0 0 0 0 0 0 0 0 0 0 0 0 0
0 0 0 0 1 1 0 0 0 0 0 0 0 0 0 0 0 0 0 0 0 0 0 0 0 0 0 0 0 0 0 0 0 0 0 0 0 0 0 0 0 0 0
0 0 0 0 1 1 0 0 0 0 0 0 0 0 0 0 0 0 0 0 0 0 0 0 0 0 0 0 0 0 0 0 0 0 0 0 0 0 0 0 0 0 0
0 0 0 0 0 0 0 0 0 0 0 0 0 0 0 0 0 0 0 0 0 0 0 0 0 0 0 0 0 0 0 0 0 0 0 0 0 0 0 0 0 0 0
0 0 0 0 0 0 0 0 0 0 0 0 0 0 0 0 0 0 0 0 0 0 0 0 0 0 0 0 0 0 0 0 0 0 0 0 0 0 0 0 0 0 0
0 0 0 0 0 0 0 0 0 0 0 0 0 0 0 0 0 0 0 0 0 0 0 0 0 0 0 0 0 0 0 0 0 0 0 0 0 0 0 0 0 0 0
0 0 0 0 0 0 0 0 0 0 0 0 0 0 0 0 0 0 0 0 0 0 0 0 0 0 0 0 0 0 0 0 0 0 0 0 0 0 1 1 1 0 0
0 0 0 0 0 0 0 0 0 0 0 0 0 0 0 0 0 0 0 0 0 0 0 0 0 0 0 0 0 0 0 0 0 0 0 0 0 0 1 2 2 1 0
0 0 0 0 0 0 0 0 0 0 0 0 0 0 0 0 0 0 0 0 0 0 0 0 0 0 0 0 0 0 0 0 0 0 0 0 0 0 1 2 2 1 0
0 0 0 0 0 0 0 0 0 0 0 0 0 0 0 0 0 0 0 0 0 0 0 0 0 0 0 0 0 0 0 0 0 0 0 0 0 0 0 1 1 1 0
0 0 0 0 0 0 0 0 0 0 0 0 0 0 0 0 0 0 0 0 0 0 0 0 0 0 0 0 0 0 0 0 0 0 0 0 0 0 0 0 0 0 0
0 0 0 0 0 0 0 0 0 0 0 0 0 0 0 0 0 0 0 0 0 0 0 0 0 0 0 0 0 0 0 0 0 0 0 0 0 0 0 0 0 0 0
0 0 0 0 0 0 0 0 0 0 0 0 0 0 0 0 0 0 0 0 0 0 0 0 0 0 0 0 0 0 0 0 0 0 0 0 0 0 0 0 0 0 0
0 0 0 0 0 0 0 0 0 0 0 0 0 0 0 0 0 0 0 0 0 0 0 0 0 0 0 0 0 0 0 0 0 0 0 0 0 0 0 0 0 0 0
0 0 0 0 0 0 0 0 0 0 0 0 0 0 0 0 0 0 0 0 0 0 0 0 0 0 0 0 0 0 0 0 0 0 0 0 0 0 0 0 0 0 0
0 0 0 0 0 0 0 0 0 0 0 0 0 0 0 0 0 0 0 0 0 0 0 0 0 0 0 0 0 0 0 0 0 0 0 0 0 0 0 0 0 0 0
Wind_Speed
2 3 9 10 9 9 9 10 10 10 10 10 10 10 10 10 10 9 9 9 8 8 8 8 8 8 8 7 7 7 7 6 6 6 5 5 5 5 6 6 5 3 6
6 5 10 10 10 10 9 9 9 9 9 9 9 9 9 9 9 8 8 8 8 7 7 7 7 6 6 6 6 6 6 6 6 5 5 4 4 4 5 5 6 4 6
8 6 8 10 10 10 9 9 9 9 9 9 8 8 8 8 8 7 7 7 7 6 6 5 5 5 5 5 5 5 5 6 6 6 4 1 1 4 4 5 6 6 6
8 6 7 10 10 10 10 9 9 9 9 8 8 8 8 8 7 7 7 7 6 6 5 5 4 4 4 4 4 4 5 6 6 6 2 1 0 4 4 5 5 6 6
8 6 8 11 11 10 10 9 9 9 8 8 8 7 7 7 7 7 6 6 6 6 5 4 4 3 3 3 4 4 5 6 6 5 2 0 0 3 4 4 5 5 6
7 6 8 11 11 10 9 9 8 8 8 7 7 6 6 5 5 5 5 5 5 5 5 4 3 3 3 3 4 4 5 6 5 3 1 1 1 3 5 4 4 5 5
7 5 7 11 11 10 9 9 8 7 7 6 5 5 4 4 3 3 3 3 4 4 4 4 3 3 3 3 4 4 5 6 3 2 1 1 2 4 5 4 4 5 5
9 6 7 11 11 10 10 9 8 6 5 4 3 2 2 2 1 1 1 2 2 3 4 4 4 4 4 4 5 5 5 5 3 3 2 2 4 5 5 5 5 5 5
8 7 5 5 7 10 10 9 7 6 4 2 1 1 2 2 2 3 3 3 3 3 4 4 5 5 5 5 6 6 6 6 3 2 3 1 4 5 5 5 5 5 5
6 6 5 4 4 4 4 7 7 5 4 2 2 3 3 3 4 4 5 5 4 4 5 5 6 6 6 6 7 7 7 5 2 2 1 2 5 6 6 5 5 5 5
6 4 5 5 4 3 3 5 4 4 3 2 3 5 4 2 3 3 5 6 5 5 5 6 7 8 8 7 8 8 6 2 2 2 2 5 6 6 6 6 5 5 5
6 5 5 6 5 4 4 2 1 1 1 2 2 2 2 2 2 2 3 4 4 6 6 7 7 8 6 3 5 6 2 2 2 2 3 7 7 6 6 6 5 5 6
6 6 5 6 5 5 2 1 1 0 0 1 1 1 1 2 2 2 1 3 4 4 3 5 5 3 3 3 2 2 2 2 1 2 3 7 7 7 6 6 6 6 6
5 5 6 6 5 4 3 2 2 1 1 0 1 2 2 2 2 2 2 2 2 2 2 2 2 3 4 3 3 2 1 1 1 1 2 6 7 6 6 6 6 6 6
5 5 5 6 5 4 3 2 2 2 1 1 2 3 3 2 2 2 2 2 2 2 2 2 3 4 4 4 3 2 2 1 0 1 1 5 6 6 5 5 6 6 6
5 5 4 5 5 5 3 3 2 2 2 2 3 3 4 3 2 3 3 3 3 2 2 2 3 3 3 2 3 3 2 1 1 1 1 2 4 4 4 4 5 6 6
6 5 5 5 5 5 5 4 3 3 3 3 3 4 4 4 3 3 2 3 3 3 3 3 3 3 3 3 3 3 2 1 1 1 1 1 1 2 4 4 4 5 6
6 5 5 6 6 5 5 4 3 3 3 3 2 3 4 4 4 3 3 3 3 3 3 2 3 3 3 3 3 3 2 1 1 0 0 1 1 1 2 3 4 4 5
7 6 6 6 6 5 5 4 4 3 3 2 2 2 3 4 4 3 2 2 3 3 3 3 2 2 2 3 2 2 2 2 2 1 1 0 1 1 1 2 3 3 4
6 6 7 6 5 5 4 4 3 3 2 2 1 2 3 3 3 3 2 3 3 3 3 3 3 3 2 2 3 3 3 3 2 2 1 1 0 1 1 1 1 2 3
5 6 6 6 4 4 3 3 2 1 1 1 1 1 2 2 3 3 3 3 3 3 3 3 2 3 3 2 3 3 4 4 3 3 2 2 1 0 1 1 1 0 1
6 6 6 6 5 4 3 2 2 2 1 0 1 1 1 1 2 2 3 2 2 2 4 4 3 2 3 3 2 2 3 5 4 4 3 2 2 1 1 1 1 1 1
6 6 6 5 5 4 4 3 3 3 3 2 2 1 2 1 1 2 2 2 2 2 2 2 2 3 2 3 2 2 2 1 3 3 3 3 2 1 1 0 1 1 1
5 4 5 5 5 4 4 4 4 2 1 1 1 1 2 2 1 1 1 2 2 2 2 2 2 1 2 2 2 2 1 2 1 2 3 3 3 2 1 1 0 0 1
4 4 4 5 4 4 4 5 4 2 1 1 0 1 1 2 2 1 1 1 2 1 1 2 2 2 1 1 1 1 2 2 1 1 2 3 3 2 2 1 0 0 0
4 4 4 5 3 3 4 3 3 3 1 0 0 1 1 1 2 2 1 0 1 1 1 1 1 2 1 1 1 1 1 1 0 1 0 1 2 2 2 2 1 0 0
Wind_Direction
122 128 118 112 108 104 99 96 92 90 88 85 84 82 79 77 75 73 72 72 72 70 67 65 62 61 61 59 56 51 48 46 45 46 48 52 60 66 66 64 61 51 57
137 126 118 113 110 107 102 97 93 89 86 83 81 79 77 76 73 71 69 67 65 66 64 62 60 57 57 55 50 43 38 31 25 26 29 35 63 76 68 66 68 67 61
123 117 113 111 108 105 101 97 92 88 86 83 81 79 75 72 70 69 65 60 57 55 55 55 56 52 49 45 39 32 24 17 16 16 20 33 84 88 78 71 70 70 66
124 117 113 110 106 103 99 95 92 89 85 82 79 76 73 69 66 63 59 52 46 44 44 44 45 43 39 33 24 16 10 9 10 11 17 5 78 104 93 79 73 72 69
118 115 118 114 110 106 103 99 95 92 88 84 80 75 71 68 64 59 54 49 41 36 33 32 32 24 18 11 5 359 356 359 3 8 7 45 106 120 103 89 81 76 71
122 122 125 121 118 115 111 107 101 97 92 87 81 76 71 66 61 57 51 45 35 26 20 18 12 358 356 350 344 341 341 345 357 0 4 209 185 136 112 100 91 83 76
133 134 134 131 129 125 120 114 109 105 100 93 85 80 72 63 55 47 42 37 26 14 5 359 350 337 329 323 319 318 324 330 352 360 343 238 201 150 124 111 100 94 85
145 148 144 144 142 138 134 130 127 124 120 112 96 73 51 35 15 1 12 2 358 355 349 343 333 319 310 301 295 294 300 310 341 357 319 249 203 159 135 120 111 106 95
152 153 155 157 153 152 149 147 147 146 149 158 173 329 332 330 301 269 266 282 306 331 332 326 317 310 305 300 293 287 290 299 320 312 295 239 201 167 145 132 124 118 106
156 162 166 167 166 166 165 166 166 169 183 215 261 286 302 311 305 279 263 270 286 311 316 316 311 306 302 297 293 288 286 296 304 301 280 237 206 177 158 148 139 130 121
165 176 174 178 187 187 192 197 189 196 221 264 305 312 322 324 317 302 275 270 284 300 310 313 313 313 309 302 296 291 290 272 285 276 250 233 207 184 170 160 150 143 138
176 187 186 184 191 199 208 187 212 250 305 310 307 318 331 326 325 334 301 302 312 320 321 331 332 329 325 312 305 304 288 260 258 253 234 219 199 185 175 165 157 150 146
176 177 177 180 183 188 202 171 171 336 333 322 318 315 0 16 2 13 1 345 343 345 340 343 348 343 330 313 303 305 285 266 244 245 220 204 190 182 175 169 162 157 152
151 160 163 164 161 166 150 148 143 134 123 92 10 21 46 33 17 13 17 356 352 345 348 345 342 341 337 327 320 327 327 280 223 219 211 194 185 183 175 173 167 161 157
140 139 144 146 141 133 119 119 112 123 119 68 35 29 53 53 31 23 21 14 359 359 4 357 358 353 349 345 350 8 359 336 230 193 218 202 191 188 180 178 174 167 163
147 144 139 128 127 116 107 100 102 103 90 65 49 46 55 60 51 37 25 14 6 358 1 7 6 357 343 345 357 3 357 354 308 206 205 219 209 194 185 183 181 175 171
159 148 140 130 119 110 104 100 101 101 91 73 57 51 54 55 52 45 30 13 353 354 7 10 8 6 2 0 355 349 354 354 342 275 205 195 216 211 198 188 185 184 179
152 148 143 129 117 112 109 103 97 92 90 81 70 55 50 48 51 46 30 6 352 8 14 11 10 5 357 354 345 340 349 344 359 320 179 170 181 207 212 201 192 190 191
156 148 131 122 124 118 107 96 89 86 84 85 69 55 44 42 45 49 33 6 9 23 15 5 13 7 352 347 337 349 354 354 350 19 65 143 182 187 194 216 202 200 200
148 137 127 123 122 112 94 79 64 60 59 62 59 51 46 37 44 44 30 11 19 28 13 6 359 358 349 342 357 6 357 355 1 15 23 37 100 171 171 191 202 219 200
135 134 134 132 133 120 103 97 89 78 54 34 331 36 47 43 49 50 32 18 21 27 12 6 5 1 352 357 26 4 357 6 21 15 14 26 34 50 126 155 173 165 204
147 148 142 143 141 135 131 137 142 139 148 216 327 359 6 34 37 57 47 32 23 26 17 16 25 12 353 12 48 44 8 355 357 9 11 24 23 23 35 138 142 178 192
149 157 156 156 145 138 125 103 75 54 37 21 5 342 323 341 14 39 42 44 32 43 17 5 26 39 8 356 37 96 88 342 326 340 360 5 12 21 2 40 146 174 169
162 154 148 150 143 138 128 120 119 116 131 246 246 273 307 317 338 12 38 38 32 30 9 347 31 35 50 7 353 20 139 174 132 334 335 346 360 14 9 24 64 172 154
145 142 141 140 140 143 135 132 125 126 182 253 317 332 329 324 320 325 9 35 27 11 350 355 9 18 47 60 7 354 15 35 72 122 326 332 348 344 344 354 24 101 164
111 117 126 133 139 142 136 135 142 152 161 121 341 312 313 314 309 305 309 354 7 357 335 339 359 5 8 38 32 43 78 63 13 97 242 316 330 322 336 347 350 274 178